Back to catalog

DELTA 1 DEB

AliveLEO
NORAD 7049·DEBRIS·🇺🇸 United States

Launched Nov 6, 1973 from Vandenberg Space Force Base

Loading…

Next Passes (next 24 hours)

TLE

FreshSource: Space-Track

Epoch: Sep 13, 2026, 16:28 UTC

1 07049U 73086AR  26256.68630797  .00000230  00000-0  32756-2 0  9991
2 07049 101.8217 167.3838 0252764  31.3098  34.8699 11.93549977295109

Track DELTA 1 DEB in real time with AllMySat

Download on the App Store